Location: Newark
(49.2191°N, 12.6671°E)
Time: 01:48:53
(UTC+00:00)

Vanguard 3 - All Passes

Search period start: 23 January 2020 00:00
Search period end: 02 February 2020 00:00
Orbit: 507 x 3263 km, 33.4° (Epoch: 22 January)

Date Brightness Start Highest point End Pass type
(mag) Time Alt. Az. Time Alt. Az. Time Alt. Az.
23 Jan - 14:09:49 10° SSE 14:18:27 15° SE 14:26:49 10° ESE daylight
23 Jan - 16:15:35 10° SSW 16:31:33 32° SSE 16:44:56 10° E visible
23 Jan - 18:28:24 10° WSW 18:45:33 42° S 18:57:39 10° ESE visible
23 Jan - 20:44:17 10° WSW 20:58:42 36° SSW 21:08:04 10° SE visible
23 Jan - 23:02:36 10° WSW 23:09:40 17° SW 23:15:05 10° S visible
24 Jan - 15:02:00 10° S 15:16:02 25° SE 15:29:02 10° E daylight
24 Jan - 17:12:29 10° SW 17:29:52 40° SSE 17:43:27 10° ESE visible
24 Jan - 19:27:09 10° WSW 19:43:47 42° S 19:55:02 10° ESE visible
24 Jan - 21:44:08 10° W 21:56:02 27° SSW 22:04:08 10° SSE visible
25 Jan - 13:50:33 10° SSE 14:00:53 17° SE 14:11:11 10° ESE daylight
25 Jan - 15:57:32 10° SSW 16:14:03 35° SSE 16:28:31 10° E visible
25 Jan - 18:10:31 10° WSW 18:28:18 44° S 18:41:21 10° ESE visible
25 Jan - 20:26:29 10° W 20:41:40 37° SSW 20:51:51 10° SE visible
25 Jan - 22:45:15 10° WSW 22:52:45 16° SW 22:58:34 10° S visible
26 Jan - 14:43:51 10° SSW 14:58:25 28° SSE 15:12:34 10° E daylight
26 Jan - 16:54:39 10° SW 17:12:25 43° SSE 17:27:01 10° ESE visible
26 Jan - 19:09:20 10° WSW 19:26:36 43° S 19:38:45 10° SE visible
26 Jan - 21:26:28 10° W 21:39:00 27° SW 21:47:47 10° SSE visible
27 Jan - 13:31:57 10° S 13:43:15 20° SE 13:54:59 10° E daylight
27 Jan - 15:39:45 10° SW 15:56:29 38° SSE 16:11:55 10° E daylight
27 Jan - 17:52:47 10° WSW 18:10:55 46° S 18:24:56 10° ESE visible
27 Jan - 20:08:43 10° W 20:24:31 37° SSW 20:35:30 10° SE visible
27 Jan - 22:27:58 10° WSW 22:35:42 16° SW 22:41:50 10° SSW visible
28 Jan - 12:25:02 10° SE 12:28:40 11° SE 12:32:25 10° ESE daylight
28 Jan - 14:26:01 10° SSW 14:40:47 31° SSE 14:55:52 10° E daylight
28 Jan - 16:37:01 10° SW 16:54:54 45° S 17:10:25 10° ESE visible
28 Jan - 18:51:37 10° WSW 19:09:17 44° SSW 19:22:19 10° SE visible
28 Jan - 21:08:50 10° W 21:21:51 27° SW 21:31:16 10° SSE visible
29 Jan - 13:13:51 10° S 13:25:36 22° SE 13:38:23 10° E daylight
29 Jan - 15:22:12 10° SW 15:38:50 40° SSE 15:55:08 10° E daylight
29 Jan - 17:35:12 10° WSW 17:53:27 47° S 18:08:22 10° ESE visible
29 Jan - 19:51:02 10° W 20:07:13 36° SSW 20:19:00 10° SSE visible
29 Jan - 22:10:45 10° WSW 22:18:32 15° SW 22:24:52 10° SSW visible
30 Jan - 12:05:00 10° SSE 12:11:05 13° SE 12:17:36 10° ESE daylight
30 Jan - 14:08:28 10° SSW 14:23:07 33° SSE 14:38:58 10° E daylight
30 Jan - 16:19:35 10° SW 16:37:19 46° S 16:53:40 10° ESE visible
30 Jan - 18:34:02 10° WSW 18:51:51 44° SSW 19:05:45 10° SE visible
30 Jan - 20:51:16 10° W 21:04:33 26° SW 21:14:34 10° S visible
31 Jan - 12:56:08 10° S 13:07:58 24° SE 13:21:30 10° E daylight
31 Jan - 15:04:52 10° SW 15:21:12 42° SSE 15:38:13 10° E daylight
31 Jan - 17:17:46 10° WSW 17:35:55 47° S 17:51:39 10° ESE visible
31 Jan - 19:33:27 10° W 19:49:49 35° SSW 20:02:21 10° SSE visible
31 Jan - 21:53:44 10° WSW 22:01:14 15° SW 22:07:35 10° SSW visible
01 Feb - 11:46:23 10° SSE 11:53:31 14° SE 12:01:29 10° ESE daylight
01 Feb - 13:51:11 10° SSW 14:05:28 35° SSE 14:21:51 10° E daylight
01 Feb - 16:02:19 10° WSW 16:19:41 47° S 16:36:46 10° ESE visible
01 Feb - 18:16:34 10° W 18:34:21 43° SSW 18:49:01 10° SE visible
01 Feb - 20:33:49 10° W 20:47:09 25° SW 20:57:39 10° S visible
